Year,Month,Day,Hour,Minute,Value (Times are PST for temperature in C)
2011,08,20,00,00,11.90
2011,08,20,00,01,11.90
2011,08,20,00,02,12.00
2011,08,20,00,03,12.00
2011,08,20,00,04,12.00
2011,08,20,00,05,11.90
2011,08,20,00,06,11.90
2011,08,20,00,07,11.90
2011,08,20,00,08,11.90
2011,08,20,00,09,11.90
2011,08,20,00,10,11.90
2011,08,20,00,11,11.90
2011,08,20,00,12,11.90
2011,08,20,00,13,12.00
2011,08,20,00,14,12.00
2011,08,20,00,15,12.00
2011,08,20,00,16,12.00
2011,08,20,00,17,12.00
2011,08,20,00,18,12.00
2011,08,20,00,19,12.00
2011,08,20,00,20,12.00
2011,08,20,00,21,12.00
2011,08,20,00,22,12.00
2011,08,20,00,23,12.00
2011,08,20,00,24,12.00
2011,08,20,00,25,12.00
2011,08,20,00,26,12.00
2011,08,20,00,27,12.00
2011,08,20,00,28,12.00
2011,08,20,00,29,11.90
2011,08,20,00,30,11.90
2011,08,20,00,31,11.90
2011,08,20,00,32,11.90
2011,08,20,00,33,11.80
2011,08,20,00,34,11.80
2011,08,20,00,35,11.80
2011,08,20,00,36,11.70
2011,08,20,00,37,11.70
2011,08,20,00,38,11.70
2011,08,20,00,39,11.70
2011,08,20,00,40,11.70
2011,08,20,00,41,11.70
2011,08,20,00,42,11.70
2011,08,20,00,43,11.70
2011,08,20,00,44,11.80
2011,08,20,00,45,11.80
2011,08,20,00,46,11.80
2011,08,20,00,47,11.80
2011,08,20,00,48,11.80
2011,08,20,00,49,11.80
2011,08,20,00,50,11.80
2011,08,20,00,51,11.80
2011,08,20,00,52,11.80
2011,08,20,00,53,11.80
2011,08,20,00,54,11.80
2011,08,20,00,55,11.80
2011,08,20,00,56,11.80
2011,08,20,00,57,11.80
2011,08,20,00,58,11.70
2011,08,20,00,59,11.70
2011,08,20,01,00,11.70
2011,08,20,01,01,11.60
2011,08,20,01,02,11.60
2011,08,20,01,03,11.50
2011,08,20,01,04,11.50
2011,08,20,01,05,11.50
2011,08,20,01,06,11.40
2011,08,20,01,07,11.40
2011,08,20,01,08,11.40
2011,08,20,01,09,11.30
2011,08,20,01,10,11.30
2011,08,20,01,11,11.30
2011,08,20,01,12,11.40
2011,08,20,01,13,11.40
2011,08,20,01,14,11.40
2011,08,20,01,15,11.40
2011,08,20,01,16,11.40
2011,08,20,01,17,11.50
2011,08,20,01,18,11.50
2011,08,20,01,19,11.50
2011,08,20,01,20,11.50
2011,08,20,01,21,11.50
2011,08,20,01,22,11.50
2011,08,20,01,23,11.50
2011,08,20,01,24,11.40
2011,08,20,01,25,11.40
2011,08,20,01,26,11.40
2011,08,20,01,27,11.40
2011,08,20,01,28,11.40
2011,08,20,01,29,11.40
2011,08,20,01,30,11.30
2011,08,20,01,31,11.30
2011,08,20,01,32,11.30
2011,08,20,01,33,11.40
2011,08,20,01,34,11.40
2011,08,20,01,35,11.40
2011,08,20,01,36,11.40
2011,08,20,01,37,11.40
2011,08,20,01,38,11.40
2011,08,20,01,39,11.40
2011,08,20,01,40,11.40
2011,08,20,01,41,11.40
2011,08,20,01,42,11.30
2011,08,20,01,43,11.30
2011,08,20,01,44,11.30
2011,08,20,01,45,11.30
2011,08,20,01,46,11.20
2011,08,20,01,47,11.20
2011,08,20,01,48,11.20
2011,08,20,01,49,11.20
2011,08,20,01,50,11.20
2011,08,20,01,51,11.10
2011,08,20,01,52,11.10
2011,08,20,01,53,11.10
2011,08,20,01,54,11.10
2011,08,20,01,55,11.10
2011,08,20,01,56,11.10
2011,08,20,01,57,11.10
2011,08,20,01,58,11.10
2011,08,20,01,59,11.20
2011,08,20,02,00,11.20
2011,08,20,02,01,11.20
2011,08,20,02,02,11.20
2011,08,20,02,03,11.30
2011,08,20,02,04,11.30
2011,08,20,02,05,11.30
2011,08,20,02,06,11.30
2011,08,20,02,07,11.30
2011,08,20,02,08,11.30
2011,08,20,02,09,11.30
2011,08,20,02,10,11.30
2011,08,20,02,11,11.30
2011,08,20,02,12,11.30
2011,08,20,02,13,11.30
2011,08,20,02,14,11.30
2011,08,20,02,15,11.30
2011,08,20,02,16,11.30
2011,08,20,02,17,11.20
2011,08,20,02,18,11.20
2011,08,20,02,19,11.20
2011,08,20,02,20,11.20
2011,08,20,02,21,11.20
2011,08,20,02,22,11.20
2011,08,20,02,23,11.20
2011,08,20,02,24,11.20
2011,08,20,02,25,11.20
2011,08,20,02,26,11.20
2011,08,20,02,27,11.20
2011,08,20,02,28,11.20
2011,08,20,02,29,11.20
2011,08,20,02,30,11.20
2011,08,20,02,31,11.20
2011,08,20,02,32,11.20
2011,08,20,02,33,11.20
2011,08,20,02,34,11.20
2011,08,20,02,35,11.20
2011,08,20,02,36,11.20
2011,08,20,02,37,11.20
2011,08,20,02,38,11.30
2011,08,20,02,39,11.30
2011,08,20,02,40,11.30
2011,08,20,02,41,11.30
2011,08,20,02,42,11.30
2011,08,20,02,43,11.30
2011,08,20,02,44,11.30
2011,08,20,02,45,11.20
2011,08,20,02,46,11.20
2011,08,20,02,47,11.20
2011,08,20,02,48,11.10
2011,08,20,02,49,11.10
2011,08,20,02,50,11.00
2011,08,20,02,51,11.00
2011,08,20,02,52,11.00
2011,08,20,02,53,11.00
2011,08,20,02,54,10.90
2011,08,20,02,55,11.00
2011,08,20,02,56,10.90
2011,08,20,02,57,11.00
2011,08,20,02,58,11.00
2011,08,20,02,59,11.00
2011,08,20,03,00,11.00
2011,08,20,03,01,11.00
2011,08,20,03,02,11.10
2011,08,20,03,03,11.10
2011,08,20,03,04,11.10
2011,08,20,03,05,11.10
2011,08,20,03,06,11.10
2011,08,20,03,07,11.10
2011,08,20,03,08,11.10
2011,08,20,03,09,11.10
2011,08,20,03,10,11.10
2011,08,20,03,11,11.10
2011,08,20,03,12,11.10
2011,08,20,03,13,11.10
2011,08,20,03,14,11.10
2011,08,20,03,15,11.10
2011,08,20,03,16,11.10
2011,08,20,03,17,11.20
2011,08,20,03,18,11.20
2011,08,20,03,19,11.30
2011,08,20,03,20,11.30
2011,08,20,03,21,11.30
2011,08,20,03,22,11.30
2011,08,20,03,23,11.40
2011,08,20,03,24,11.50
2011,08,20,03,25,11.50
2011,08,20,03,26,11.60
2011,08,20,03,27,11.60
2011,08,20,03,28,11.70
2011,08,20,03,29,11.80
2011,08,20,03,30,11.90
2011,08,20,03,31,12.00
2011,08,20,03,32,12.00
2011,08,20,03,33,12.10
2011,08,20,03,34,12.20
2011,08,20,03,35,12.30
2011,08,20,03,36,12.30
2011,08,20,03,37,12.20
2011,08,20,03,38,12.20
2011,08,20,03,39,12.20
2011,08,20,03,40,12.30
2011,08,20,03,41,12.30
2011,08,20,03,42,12.40
2011,08,20,03,43,12.40
2011,08,20,03,44,12.40
2011,08,20,03,45,12.50
2011,08,20,03,46,12.50
2011,08,20,03,47,12.60
2011,08,20,03,48,12.80
2011,08,20,03,49,13.00
2011,08,20,03,50,13.20
2011,08,20,03,51,13.20
2011,08,20,03,52,13.30
2011,08,20,03,53,13.30
2011,08,20,03,54,13.30
2011,08,20,03,55,13.20
2011,08,20,03,56,13.20
2011,08,20,03,57,13.10
2011,08,20,03,58,13.10
2011,08,20,03,59,13.10
2011,08,20,04,00,13.10
2011,08,20,04,01,13.10
2011,08,20,04,02,13.10
2011,08,20,04,03,13.10
2011,08,20,04,04,13.10
2011,08,20,04,05,13.10
2011,08,20,04,06,13.10
2011,08,20,04,07,13.10
2011,08,20,04,08,13.10
2011,08,20,04,09,13.10
2011,08,20,04,10,13.00
2011,08,20,04,11,13.00
2011,08,20,04,12,13.00
2011,08,20,04,13,13.00
2011,08,20,04,14,13.00
2011,08,20,04,15,13.00
2011,08,20,04,16,13.00
2011,08,20,04,17,13.10
2011,08,20,04,18,13.10
2011,08,20,04,19,13.10
2011,08,20,04,20,13.10
2011,08,20,04,21,13.10
2011,08,20,04,22,13.20
2011,08,20,04,23,13.20
2011,08,20,04,24,13.20
2011,08,20,04,25,13.30
2011,08,20,04,26,13.30
2011,08,20,04,27,13.30
2011,08,20,04,28,13.30
2011,08,20,04,29,13.30
2011,08,20,04,30,13.30
2011,08,20,04,31,13.30
2011,08,20,04,32,13.30
2011,08,20,04,33,13.40
2011,08,20,04,34,13.40
2011,08,20,04,35,13.30
2011,08,20,04,36,13.30
2011,08,20,04,37,13.30
2011,08,20,04,38,13.30
2011,08,20,04,39,13.20
2011,08,20,04,40,13.10
2011,08,20,04,41,13.10
2011,08,20,04,42,13.00
2011,08,20,04,43,13.00
2011,08,20,04,44,12.90
2011,08,20,04,45,12.90
2011,08,20,04,46,12.80
2011,08,20,04,47,12.80
2011,08,20,04,48,12.70
2011,08,20,04,49,12.70
2011,08,20,04,50,12.60
2011,08,20,04,51,12.60
2011,08,20,04,52,12.50
2011,08,20,04,53,12.50
2011,08,20,04,54,12.40
2011,08,20,04,55,12.40
2011,08,20,04,56,12.30
2011,08,20,04,57,12.30
2011,08,20,04,58,12.20
2011,08,20,04,59,12.20
2011,08,20,05,00,12.20
2011,08,20,05,01,12.10
2011,08,20,05,02,12.10
2011,08,20,05,03,12.10
2011,08,20,05,04,12.10
2011,08,20,05,05,12.00
2011,08,20,05,06,12.00
2011,08,20,05,07,12.00
2011,08,20,05,08,11.90
2011,08,20,05,09,11.90
2011,08,20,05,10,11.90
2011,08,20,05,11,11.80
2011,08,20,05,12,11.80
2011,08,20,05,13,11.80
2011,08,20,05,14,11.70
2011,08,20,05,15,11.70
2011,08,20,05,16,11.70
2011,08,20,05,17,11.70
2011,08,20,05,18,11.70
2011,08,20,05,19,11.70
2011,08,20,05,20,11.70
2011,08,20,05,21,11.70
2011,08,20,05,22,11.70
2011,08,20,05,23,11.70
2011,08,20,05,24,11.80
2011,08,20,05,25,11.80
2011,08,20,05,26,11.80
2011,08,20,05,27,11.80
2011,08,20,05,28,11.80
2011,08,20,05,29,11.80
2011,08,20,05,30,11.80
2011,08,20,05,31,11.80
2011,08,20,05,32,11.80
2011,08,20,05,33,11.80
2011,08,20,05,34,11.80
2011,08,20,05,35,11.80
2011,08,20,05,36,11.80
2011,08,20,05,37,11.80
2011,08,20,05,38,11.80
2011,08,20,05,39,11.70
2011,08,20,05,40,11.80
2011,08,20,05,41,11.80
2011,08,20,05,42,11.80
2011,08,20,05,43,11.90
2011,08,20,05,44,11.90
2011,08,20,05,45,11.90
2011,08,20,05,46,11.90
2011,08,20,05,47,11.90
2011,08,20,05,48,11.90
2011,08,20,05,49,12.00
2011,08,20,05,50,12.00
2011,08,20,05,51,12.00
2011,08,20,05,52,12.10
2011,08,20,05,53,12.00
2011,08,20,05,54,12.00
2011,08,20,05,55,12.00
2011,08,20,05,56,12.00
2011,08,20,05,57,12.00
2011,08,20,05,58,12.00
2011,08,20,05,59,11.90
2011,08,20,06,00,11.90
2011,08,20,06,01,11.90
2011,08,20,06,02,11.90
2011,08,20,06,03,11.80
2011,08,20,06,04,11.80
2011,08,20,06,05,11.80
2011,08,20,06,06,11.80
2011,08,20,06,07,11.80
2011,08,20,06,08,11.70
2011,08,20,06,09,11.70
2011,08,20,06,10,11.70
2011,08,20,06,11,11.70
2011,08,20,06,12,11.70
2011,08,20,06,13,11.70
2011,08,20,06,14,11.70
2011,08,20,06,15,11.80
2011,08,20,06,16,11.80
2011,08,20,06,17,11.80
2011,08,20,06,18,11.80
2011,08,20,06,19,11.80
2011,08,20,06,20,11.80
2011,08,20,06,21,11.80
2011,08,20,06,22,11.80
2011,08,20,06,23,11.70
2011,08,20,06,24,11.70
2011,08,20,06,25,11.70
2011,08,20,06,26,11.70
2011,08,20,06,27,11.70
2011,08,20,06,28,11.70
2011,08,20,06,29,11.70
2011,08,20,06,30,11.60
2011,08,20,06,31,11.60
2011,08,20,06,32,11.70
2011,08,20,06,33,11.70
2011,08,20,06,34,11.70
2011,08,20,06,35,11.70
2011,08,20,06,36,11.70
2011,08,20,06,37,11.80
2011,08,20,06,38,11.80
2011,08,20,06,39,11.80
2011,08,20,06,40,11.80
2011,08,20,06,41,11.80
2011,08,20,06,42,11.80
2011,08,20,06,43,11.80
2011,08,20,06,44,11.80
2011,08,20,06,45,11.80
2011,08,20,06,46,11.80
2011,08,20,06,47,11.80
2011,08,20,06,48,11.80
2011,08,20,06,49,11.90
2011,08,20,06,50,11.90
2011,08,20,06,51,11.90
2011,08,20,06,52,12.00
2011,08,20,06,53,12.00
2011,08,20,06,54,12.00
2011,08,20,06,55,12.10
2011,08,20,06,56,12.10
2011,08,20,06,57,12.20
2011,08,20,06,58,12.20
2011,08,20,06,59,12.20
2011,08,20,07,00,12.20
2011,08,20,07,01,12.30
2011,08,20,07,02,12.30
2011,08,20,07,03,12.40
2011,08,20,07,04,12.40
2011,08,20,07,05,12.50
2011,08,20,07,06,12.50
2011,08,20,07,07,12.60
2011,08,20,07,08,12.60
2011,08,20,07,09,12.70
2011,08,20,07,10,12.70
2011,08,20,07,11,12.80
2011,08,20,07,12,12.80
2011,08,20,07,13,12.80
2011,08,20,07,14,12.90
2011,08,20,07,15,13.00
2011,08,20,07,16,13.00
2011,08,20,07,17,13.00
2011,08,20,07,18,13.10
2011,08,20,07,19,13.20
2011,08,20,07,20,13.30
2011,08,20,07,21,13.40
2011,08,20,07,22,13.60
2011,08,20,07,23,13.70
2011,08,20,07,24,13.90
2011,08,20,07,25,14.10
2011,08,20,07,26,14.30
2011,08,20,07,27,14.40
2011,08,20,07,28,14.50
2011,08,20,07,29,14.70
2011,08,20,07,30,14.70
2011,08,20,07,31,14.80
2011,08,20,07,32,14.80
2011,08,20,07,33,14.80
2011,08,20,07,34,14.80
2011,08,20,07,35,14.90
2011,08,20,07,36,14.90
2011,08,20,07,37,15.00
2011,08,20,07,38,15.00
2011,08,20,07,39,15.00
2011,08,20,07,40,15.10
2011,08,20,07,41,15.20
2011,08,20,07,42,15.30
2011,08,20,07,43,15.40
2011,08,20,07,44,15.60
2011,08,20,07,45,15.70
2011,08,20,07,46,15.80
2011,08,20,07,47,15.80
2011,08,20,07,48,15.90
2011,08,20,07,49,15.90
2011,08,20,07,50,16.00
2011,08,20,07,51,16.00
2011,08,20,07,52,16.00
2011,08,20,07,53,16.00
2011,08,20,07,54,16.00
2011,08,20,07,55,16.10
2011,08,20,07,56,16.10
2011,08,20,07,57,16.10
2011,08,20,07,58,16.20
2011,08,20,07,59,16.30
2011,08,20,08,00,16.30
2011,08,20,08,01,16.40
2011,08,20,08,02,16.50
2011,08,20,08,03,16.60
2011,08,20,08,04,16.60
2011,08,20,08,05,16.70
2011,08,20,08,06,16.80
2011,08,20,08,07,16.80
2011,08,20,08,08,16.90
2011,08,20,08,09,16.90
2011,08,20,08,10,17.00
2011,08,20,08,11,17.10
2011,08,20,08,12,17.20
2011,08,20,08,13,17.30
2011,08,20,08,14,17.30
2011,08,20,08,15,17.40
2011,08,20,08,16,17.50
2011,08,20,08,17,17.60
2011,08,20,08,18,17.70
2011,08,20,08,19,17.80
2011,08,20,08,20,17.80
2011,08,20,08,21,17.90
2011,08,20,08,22,18.00
2011,08,20,08,23,18.00
2011,08,20,08,24,18.10
2011,08,20,08,25,18.20
2011,08,20,08,26,18.30
2011,08,20,08,27,18.40
2011,08,20,08,28,18.40
2011,08,20,08,29,18.50
2011,08,20,08,30,18.60
2011,08,20,08,31,18.60
2011,08,20,08,32,18.70
2011,08,20,08,33,18.80
2011,08,20,08,34,18.80
2011,08,20,08,35,18.80
2011,08,20,08,36,18.90
2011,08,20,08,37,19.00
2011,08,20,08,38,19.00
2011,08,20,08,39,19.10
2011,08,20,08,40,19.10
2011,08,20,08,41,19.10
2011,08,20,08,42,19.20
2011,08,20,08,43,19.20
2011,08,20,08,44,19.20
2011,08,20,08,45,19.30
2011,08,20,08,46,19.30
2011,08,20,08,47,19.30
2011,08,20,08,48,19.40
2011,08,20,08,49,19.40
2011,08,20,08,50,19.40
2011,08,20,08,51,19.40
2011,08,20,08,52,19.50
2011,08,20,08,53,19.50
2011,08,20,08,54,19.60
2011,08,20,08,55,19.60
2011,08,20,08,56,19.60
2011,08,20,08,57,19.70
2011,08,20,08,58,19.70
2011,08,20,08,59,19.80
2011,08,20,09,00,19.80
2011,08,20,09,01,19.80
2011,08,20,09,02,19.80
2011,08,20,09,03,19.80
2011,08,20,09,04,19.90
2011,08,20,09,05,19.90
2011,08,20,09,06,19.90
2011,08,20,09,07,19.90
2011,08,20,09,08,19.90
2011,08,20,09,09,20.00
2011,08,20,09,10,20.00
2011,08,20,09,11,20.00
2011,08,20,09,12,20.10
2011,08,20,09,13,20.10
2011,08,20,09,14,20.10
2011,08,20,09,15,20.10
2011,08,20,09,16,20.10
2011,08,20,09,17,20.10
2011,08,20,09,18,20.20
2011,08,20,09,19,20.20
2011,08,20,09,20,20.20
2011,08,20,09,21,20.20
2011,08,20,09,22,20.20
2011,08,20,09,23,20.20
2011,08,20,09,24,20.30
2011,08,20,09,25,20.30
2011,08,20,09,26,20.30
2011,08,20,09,27,20.40
2011,08,20,09,28,20.40
2011,08,20,09,29,20.40
2011,08,20,09,30,20.50
2011,08,20,09,31,20.50
2011,08,20,09,32,20.60
2011,08,20,09,33,20.60
2011,08,20,09,34,20.60
2011,08,20,09,35,20.70
2011,08,20,09,36,20.70
2011,08,20,09,37,20.70
2011,08,20,09,38,20.80
2011,08,20,09,39,20.80
2011,08,20,09,40,20.80
2011,08,20,09,41,20.90
2011,08,20,09,42,20.90
2011,08,20,09,43,20.90
2011,08,20,09,44,20.90
2011,08,20,09,45,20.90
2011,08,20,09,46,21.00
2011,08,20,09,47,21.10
2011,08,20,09,48,21.10
2011,08,20,09,49,21.20
2011,08,20,09,50,21.20
2011,08,20,09,51,21.20
2011,08,20,09,52,21.30
2011,08,20,09,53,21.40
2011,08,20,09,54,21.40
2011,08,20,09,55,21.50
2011,08,20,09,56,21.50
2011,08,20,09,57,21.50
2011,08,20,09,58,21.50
2011,08,20,09,59,21.60
2011,08,20,10,00,21.60
2011,08,20,10,01,21.70
2011,08,20,10,02,21.80
2011,08,20,10,03,21.80
2011,08,20,10,04,21.90
2011,08,20,10,05,22.00
2011,08,20,10,06,22.10
2011,08,20,10,07,22.10
2011,08,20,10,08,22.10
2011,08,20,10,09,22.10
2011,08,20,10,10,22.10
2011,08,20,10,11,22.10
2011,08,20,10,12,22.10
2011,08,20,10,13,22.20
2011,08,20,10,14,22.20
2011,08,20,10,15,22.20
2011,08,20,10,16,22.20
2011,08,20,10,17,22.20
2011,08,20,10,18,22.20
2011,08,20,10,19,22.30
2011,08,20,10,20,22.40
2011,08,20,10,21,22.40
2011,08,20,10,22,22.50
2011,08,20,10,23,22.50
2011,08,20,10,24,22.40
2011,08,20,10,25,22.40
2011,08,20,10,26,22.40
2011,08,20,10,27,22.40
2011,08,20,10,28,22.40
2011,08,20,10,29,22.50
2011,08,20,10,30,22.60
2011,08,20,10,31,22.60
2011,08,20,10,32,22.60
2011,08,20,10,33,22.50
2011,08,20,10,34,22.40
2011,08,20,10,35,22.40
2011,08,20,10,36,22.40
2011,08,20,10,37,22.40
2011,08,20,10,38,22.30
2011,08,20,10,39,22.30
2011,08,20,10,40,22.30
2011,08,20,10,41,22.20
2011,08,20,10,42,22.20
2011,08,20,10,43,22.10
2011,08,20,10,44,22.20
2011,08,20,10,45,22.20
2011,08,20,10,46,22.30
2011,08,20,10,47,22.30
2011,08,20,10,48,22.30
2011,08,20,10,49,22.40
2011,08,20,10,50,22.40
2011,08,20,10,51,22.50
2011,08,20,10,52,22.60
2011,08,20,10,53,22.70
2011,08,20,10,54,22.90
2011,08,20,10,55,23.00
2011,08,20,10,56,23.10
2011,08,20,10,57,23.20
2011,08,20,10,58,23.20
2011,08,20,10,59,23.20
2011,08,20,11,00,23.30
2011,08,20,11,01,23.40
2011,08,20,11,02,23.50
2011,08,20,11,03,23.50
2011,08,20,11,04,23.50
2011,08,20,11,05,23.40
2011,08,20,11,06,23.40
2011,08,20,11,07,23.50
2011,08,20,11,08,23.50
2011,08,20,11,09,23.50
2011,08,20,11,10,23.60
2011,08,20,11,11,23.70
2011,08,20,11,12,23.80
2011,08,20,11,13,23.80
2011,08,20,11,14,23.80
2011,08,20,11,15,23.80
2011,08,20,11,16,23.70
2011,08,20,11,17,23.80
2011,08,20,11,18,23.80
2011,08,20,11,19,23.70
2011,08,20,11,20,23.70
2011,08,20,11,21,23.70
2011,08,20,11,22,23.80
2011,08,20,11,23,23.80
2011,08,20,11,24,23.90
2011,08,20,11,25,23.90
2011,08,20,11,26,23.90
2011,08,20,11,27,23.80
2011,08,20,11,28,23.70
2011,08,20,11,29,23.70
2011,08,20,11,30,23.50
2011,08,20,11,31,23.50
2011,08,20,11,32,23.40
2011,08,20,11,33,23.30
2011,08,20,11,34,23.40
2011,08,20,11,35,23.40
2011,08,20,11,36,23.60
2011,08,20,11,37,23.80
2011,08,20,11,38,24.00
2011,08,20,11,39,24.20
2011,08,20,11,40,24.30
2011,08,20,11,41,24.50
2011,08,20,11,42,24.60
2011,08,20,11,43,24.70
2011,08,20,11,44,24.80
2011,08,20,11,45,24.90
2011,08,20,11,46,25.00
2011,08,20,11,47,25.10
2011,08,20,11,48,25.10
2011,08,20,11,49,25.20
2011,08,20,11,50,25.20
2011,08,20,11,51,25.30
2011,08,20,11,52,25.20
2011,08,20,11,53,25.30
2011,08,20,11,54,25.30
2011,08,20,11,55,25.30
2011,08,20,11,56,25.20
2011,08,20,11,57,25.20
2011,08,20,11,58,25.20
2011,08,20,11,59,25.20
2011,08,20,12,00,25.20
2011,08,20,12,01,25.20
2011,08,20,12,02,25.20
2011,08,20,12,03,25.20
2011,08,20,12,04,25.30
2011,08,20,12,05,25.30
2011,08,20,12,06,25.30
2011,08,20,12,07,25.30
2011,08,20,12,08,25.40
2011,08,20,12,09,25.40
2011,08,20,12,10,25.40
2011,08,20,12,11,25.40
2011,08,20,12,12,25.30
2011,08,20,12,13,25.20
2011,08,20,12,14,25.10
2011,08,20,12,15,25.00
2011,08,20,12,16,24.90
2011,08,20,12,17,24.90
2011,08,20,12,18,25.00
2011,08,20,12,19,25.10
2011,08,20,12,20,25.10
2011,08,20,12,21,25.10
2011,08,20,12,22,25.20
2011,08,20,12,23,25.20
2011,08,20,12,24,25.10
2011,08,20,12,25,25.00
2011,08,20,12,26,25.00
2011,08,20,12,27,24.90
2011,08,20,12,28,24.80
2011,08,20,12,29,24.70
2011,08,20,12,30,24.70
2011,08,20,12,31,24.80
2011,08,20,12,32,24.80
2011,08,20,12,33,25.00
2011,08,20,12,34,25.10
2011,08,20,12,35,25.30
2011,08,20,12,36,25.50
2011,08,20,12,37,25.60
2011,08,20,12,38,25.80
2011,08,20,12,39,25.90
2011,08,20,12,40,25.90
2011,08,20,12,41,25.90
2011,08,20,12,42,25.80
2011,08,20,12,43,25.70
2011,08,20,12,44,25.70
2011,08,20,12,45,25.70
2011,08,20,12,46,25.70
2011,08,20,12,47,25.50
2011,08,20,12,48,25.40
2011,08,20,12,49,25.30
2011,08,20,12,50,25.20
2011,08,20,12,51,25.20
2011,08,20,12,52,25.10
2011,08,20,12,53,25.00
2011,08,20,12,54,24.90
2011,08,20,12,55,24.80
2011,08,20,12,56,24.80
2011,08,20,12,57,24.80
2011,08,20,12,58,24.80
2011,08,20,12,59,24.80
2011,08,20,13,00,24.90
2011,08,20,13,01,24.90
2011,08,20,13,02,24.90
2011,08,20,13,03,24.90
2011,08,20,13,04,24.80
2011,08,20,13,05,24.70
2011,08,20,13,06,24.70
2011,08,20,13,07,24.70
2011,08,20,13,08,24.80
2011,08,20,13,09,24.80
2011,08,20,13,10,24.70
2011,08,20,13,11,24.70
2011,08,20,13,12,24.70
2011,08,20,13,13,24.70
2011,08,20,13,14,24.70
2011,08,20,13,15,24.70
2011,08,20,13,16,24.60
2011,08,20,13,17,24.50
2011,08,20,13,18,24.60
2011,08,20,13,19,24.60
2011,08,20,13,20,24.70
2011,08,20,13,21,24.70
2011,08,20,13,22,24.70
2011,08,20,13,23,24.70
2011,08,20,13,24,24.60
2011,08,20,13,25,24.70
2011,08,20,13,26,24.70
2011,08,20,13,27,24.80
2011,08,20,13,28,24.90
2011,08,20,13,29,24.90
2011,08,20,13,30,24.90
2011,08,20,13,31,25.00
2011,08,20,13,32,25.00
2011,08,20,13,33,25.10
2011,08,20,13,34,25.00
2011,08,20,13,35,24.90
2011,08,20,13,36,24.90
2011,08,20,13,37,25.00
2011,08,20,13,38,25.00
2011,08,20,13,39,25.10
2011,08,20,13,40,25.10
2011,08,20,13,41,25.20
2011,08,20,13,42,25.20
2011,08,20,13,43,25.10
2011,08,20,13,44,25.10
2011,08,20,13,45,25.20
2011,08,20,13,46,25.20
2011,08,20,13,47,25.30
2011,08,20,13,48,25.40
2011,08,20,13,49,25.40
2011,08,20,13,50,25.40
2011,08,20,13,51,25.30
2011,08,20,13,52,25.30
2011,08,20,13,53,25.30
2011,08,20,13,54,25.30
2011,08,20,13,55,25.30
2011,08,20,13,56,25.30
2011,08,20,13,57,25.40
2011,08,20,13,58,25.40
2011,08,20,13,59,25.30
2011,08,20,14,00,25.30
2011,08,20,14,01,25.40
2011,08,20,14,02,25.40
2011,08,20,14,03,25.30
2011,08,20,14,04,25.30
2011,08,20,14,05,25.30
2011,08,20,14,06,25.30
2011,08,20,14,07,25.30
2011,08,20,14,08,25.40
2011,08,20,14,09,25.30
2011,08,20,14,10,25.30
2011,08,20,14,11,25.40
2011,08,20,14,12,25.50
2011,08,20,14,13,25.60
2011,08,20,14,14,25.60
2011,08,20,14,15,25.70
2011,08,20,14,16,25.70
2011,08,20,14,17,25.70
2011,08,20,14,18,25.80
2011,08,20,14,19,25.90
2011,08,20,14,20,25.90
2011,08,20,14,21,25.90
2011,08,20,14,22,25.90
2011,08,20,14,23,25.90
2011,08,20,14,24,26.00
2011,08,20,14,25,26.10
2011,08,20,14,26,26.20
2011,08,20,14,27,26.20
2011,08,20,14,28,26.10
2011,08,20,14,29,26.20
2011,08,20,14,30,26.40
2011,08,20,14,31,26.50
2011,08,20,14,32,26.60
2011,08,20,14,33,26.70
2011,08,20,14,34,26.70
2011,08,20,14,35,26.70
2011,08,20,14,36,26.60
2011,08,20,14,37,26.60
2011,08,20,14,38,26.50
2011,08,20,14,39,26.30
2011,08,20,14,40,26.30
2011,08,20,14,41,26.20
2011,08,20,14,42,26.30
2011,08,20,14,43,26.30
2011,08,20,14,44,26.30
2011,08,20,14,45,26.30
2011,08,20,14,46,26.40
2011,08,20,14,47,26.30
2011,08,20,14,48,26.30
2011,08,20,14,49,26.30
2011,08,20,14,50,26.30
2011,08,20,14,51,26.30
2011,08,20,14,52,26.30
2011,08,20,14,53,26.30
2011,08,20,14,54,26.30
2011,08,20,14,55,26.40
2011,08,20,14,56,26.50
2011,08,20,14,57,26.60
2011,08,20,14,58,26.70
2011,08,20,14,59,26.80
2011,08,20,15,00,26.90
2011,08,20,15,01,26.90
2011,08,20,15,02,26.80
2011,08,20,15,03,26.70
2011,08,20,15,04,26.70
2011,08,20,15,05,26.60
2011,08,20,15,06,26.60
2011,08,20,15,07,26.60
2011,08,20,15,08,26.70
2011,08,20,15,09,26.70
2011,08,20,15,10,26.70
2011,08,20,15,11,26.80
2011,08,20,15,12,26.80
2011,08,20,15,13,26.80
2011,08,20,15,14,26.80
2011,08,20,15,15,26.80
2011,08,20,15,16,26.80
2011,08,20,15,17,26.70
2011,08,20,15,18,26.80
2011,08,20,15,19,26.80
2011,08,20,15,20,26.80
2011,08,20,15,21,26.80
2011,08,20,15,22,26.80
2011,08,20,15,23,26.70
2011,08,20,15,24,26.50
2011,08,20,15,25,26.20
2011,08,20,15,26,26.00
2011,08,20,15,27,25.90
2011,08,20,15,28,25.80
2011,08,20,15,29,25.70
2011,08,20,15,30,25.70
2011,08,20,15,31,25.80
2011,08,20,15,32,25.90
2011,08,20,15,33,26.00
2011,08,20,15,34,26.00
2011,08,20,15,35,25.90
2011,08,20,15,36,25.90
2011,08,20,15,37,25.90
2011,08,20,15,38,25.90
2011,08,20,15,39,25.90
2011,08,20,15,40,25.90
2011,08,20,15,41,25.80
2011,08,20,15,42,25.60
2011,08,20,15,43,25.40
2011,08,20,15,44,25.30
2011,08,20,15,45,25.10
2011,08,20,15,46,25.10
2011,08,20,15,47,25.00
2011,08,20,15,48,25.00
2011,08,20,15,49,25.00
2011,08,20,15,50,25.00
2011,08,20,15,51,25.10
2011,08,20,15,52,25.20
2011,08,20,15,53,25.20
2011,08,20,15,54,25.30
2011,08,20,15,55,25.40
2011,08,20,15,56,25.40
2011,08,20,15,57,25.40
2011,08,20,15,58,25.50
2011,08,20,15,59,25.50
2011,08,20,16,00,25.50
2011,08,20,16,01,25.50
2011,08,20,16,02,25.60
2011,08,20,16,03,25.50
2011,08,20,16,04,25.40
2011,08,20,16,05,25.30
2011,08,20,16,06,25.30
2011,08,20,16,07,25.20
2011,08,20,16,08,25.30
2011,08,20,16,09,25.20
2011,08,20,16,10,25.20
2011,08,20,16,11,25.10
2011,08,20,16,12,25.00
2011,08,20,16,13,24.90
2011,08,20,16,14,24.90
2011,08,20,16,15,24.80
2011,08,20,16,16,24.90
2011,08,20,16,17,24.90
2011,08,20,16,18,25.00
2011,08,20,16,19,25.20
2011,08,20,16,20,25.30
2011,08,20,16,21,25.30
2011,08,20,16,22,25.40
2011,08,20,16,23,25.50
2011,08,20,16,24,25.50
2011,08,20,16,25,25.60
2011,08,20,16,26,25.50
2011,08,20,16,27,25.50
2011,08,20,16,28,25.40
2011,08,20,16,29,25.40
2011,08,20,16,30,25.50
2011,08,20,16,31,25.50
2011,08,20,16,32,25.60
2011,08,20,16,33,25.70
2011,08,20,16,34,25.70
2011,08,20,16,35,25.70
2011,08,20,16,36,25.70
2011,08,20,16,37,25.70
2011,08,20,16,38,25.70
2011,08,20,16,39,25.70
2011,08,20,16,40,25.80
2011,08,20,16,41,25.80
2011,08,20,16,42,25.80
2011,08,20,16,43,25.80
2011,08,20,16,44,25.90
2011,08,20,16,45,25.90
2011,08,20,16,46,25.90
2011,08,20,16,47,25.90
2011,08,20,16,48,25.90
2011,08,20,16,49,25.90
2011,08,20,16,50,25.90
2011,08,20,16,51,25.90
2011,08,20,16,52,25.90
2011,08,20,16,53,25.90
2011,08,20,16,54,25.90
2011,08,20,16,55,25.90
2011,08,20,16,56,25.90
2011,08,20,16,57,25.90
2011,08,20,16,58,25.90
2011,08,20,16,59,25.90
2011,08,20,17,00,25.90
2011,08,20,17,01,25.90
2011,08,20,17,02,25.90
2011,08,20,17,03,26.00
2011,08,20,17,04,26.00
2011,08,20,17,05,26.00
2011,08,20,17,06,26.00
2011,08,20,17,07,26.00
2011,08,20,17,08,26.00
2011,08,20,17,09,26.10
2011,08,20,17,10,26.10
2011,08,20,17,11,26.20
2011,08,20,17,12,26.20
2011,08,20,17,13,26.20
2011,08,20,17,14,26.20
2011,08,20,17,15,26.20
2011,08,20,17,16,26.20
2011,08,20,17,17,26.10
2011,08,20,17,18,26.10
2011,08,20,17,19,26.00